Location: Buena Vista Beach
(41.8098°N, 81.1279°W)
Time: 08:38:35
(UTC+00:00)

GPS 2-04 Rocket1 - Pass Details

Date: 29 October 2020
Orbit: 417 x 546 km, 35.6° (Epoch: 28 November)

Event Time Altitude Azimuth Distance (km) Brightness Sun altitude
Rises 23:31:24 0° 235° (SW) 2,606 7.4 -13.5°
Reaches altitude 10° 23:33:50 10° 222° (SW) 1,744 6.1 -13.9°
Maximum altitude 23:37:12 26° 165° (SSE) 1,071 4.2 -14.5°
Enters shadow 23:39:04 19° 126° (SE) 1,327 4.3 -14.9°
